Wetterdaten: Woche 23.11.15 - 29.11.15 (KW48)
Datum Zeit Temp. Aussen Temp. o. S. +5cm Feuchte Auss BlattFeu 1 Luftdruck Regen Sonnenschein Regendauer Solar Windben Empfang
23.11.2015 00:00 1,4 C 1,4 C 0,6 C 96 % 15 lf 1015,1 hPa 0,0 l/m 0,00 h 0,00 h 9 W/m 17,3 km/h (3 Bft) 97,57 %
23.11.2015 01:00 1,6 C 1,9 C 0,6 C 96 % 15 lf 1015,8 hPa 0,2 l/m 0,00 h 0,00 h 9 W/m 17,2 km/h (3 Bft) 97,02 %
23.11.2015 02:00 1,5 C 1,1 C -0,0 C 95 % 15 lf 1016,6 hPa 0,0 l/m 0,00 h 0,00 h 9 W/m 13,0 km/h (3 Bft) 96,30 %
23.11.2015 03:00 0,9 C 0,6 C -0,6 C 95 % 15 lf 1017,2 hPa 0,0 l/m 0,00 h 0,00 h 9 W/m 10,6 km/h (2 Bft) 95,25 %
23.11.2015 04:00 0,5 C 0,1 C -1,0 C 95 % 15 lf 1017,7 hPa 0,0 l/m 0,00 h 0,00 h 9 W/m 10,4 km/h (2 Bft) 95,90 %
23.11.2015 05:00 0,0 C -0,6 C -1,7 C 95 % 15 lf 1018,5 hPa 0,0 l/m 0,00 h 0,00 h 9 W/m 8,1 km/h (2 Bft) 95,77 %
23.11.2015 06:00 -0,4 C -1,3 C -2,1 C 95 % 15 lf 1019,5 hPa 0,0 l/m 0,00 h 0,00 h 7 W/m 5,6 km/h (1 Bft) 97,91 %
23.11.2015 07:00 -0,9 C -2,0 C -2,6 C 95 % 15 lf 1020,4 hPa 0,0 l/m 0,00 h 0,00 h 4 W/m 3,9 km/h (1 Bft) 95,92 %
23.11.2015 08:00 -1,2 C -1,9 C -2,0 C 95 % 15 lf 1021,3 hPa 0,0 l/m 0,07 h 0,00 h 21 W/m 5,4 km/h (1 Bft) 94,61 %
23.11.2015 09:00 -0,8 C -0,1 C -1,3 C 95 % 15 lf 1022,4 hPa 0,0 l/m 0,97 h 0,00 h 114 W/m 4,0 km/h (1 Bft) 94,75 %
23.11.2015 10:00 1,0 C 7,5 C 0,2 C 96 % 15 lf 1023,3 hPa 0,2 l/m 1,00 h 0,07 h 201 W/m 6,2 km/h (2 Bft) 98,51 %
23.11.2015 11:00 3,7 C 13,8 C 1,9 C 97 % 12 lf 1023,6 hPa 0,0 l/m 1,00 h 0,00 h 262 W/m 7,3 km/h (2 Bft) 94,29 %
23.11.2015 12:00 5,5 C 14,2 C 3,1 C 90 % 0 lf 1023,5 hPa 0,0 l/m 1,00 h 0,00 h 289 W/m 9,3 km/h (2 Bft) 95,88 %
23.11.2015 13:00 6,6 C 14,9 C 3,5 C 80 % 0 lf 1023,6 hPa 0,0 l/m 1,00 h 0,00 h 247 W/m 10,7 km/h (2 Bft) 94,87 %
23.11.2015 14:00 6,7 C 11,8 C 3,8 C 76 % 0 lf 1023,6 hPa 0,0 l/m 1,00 h 0,00 h 159 W/m 12,9 km/h (3 Bft) 95,76 %
23.11.2015 15:00 5,7 C 6,0 C 3,1 C 78 % 0 lf 1023,6 hPa 0,0 l/m 0,23 h 0,00 h 57 W/m 11,8 km/h (2 Bft) 98,00 %
23.11.2015 16:00 4,8 C 3,9 C 1,5 C 80 % 0 lf 1023,9 hPa 0,0 l/m 0,20 h 0,00 h 16 W/m 6,0 km/h (2 Bft) 94,58 %
23.11.2015 17:00 3,7 C 3,4 C 1,3 C 82 % 0 lf 1024,2 hPa 0,0 l/m 0,00 h 0,00 h 0 W/m 7,6 km/h (2 Bft) 98,48 %
23.11.2015 18:00 3,3 C 3,3 C 1,7 C 84 % 0 lf 1024,3 hPa 0,0 l/m 0,00 h 0,00 h 0 W/m 9,4 km/h (2 Bft) 95,58 %
23.11.2015 19:00 3,1 C 2,6 C 1,2 C 87 % 0 lf 1024,2 hPa 0,0 l/m 0,00 h 0,00 h 0 W/m 9,6 km/h (2 Bft) 93,20 %
23.11.2015 20:00 2,5 C 2,2 C 1,1 C 88 % 0 lf 1024,3 hPa 0,0 l/m 0,00 h 0,00 h 0 W/m 10,4 km/h (2 Bft) 97,23 %
23.11.2015 21:00 2,4 C 2,6 C 1,1 C 89 % 0 lf 1024,3 hPa 0,0 l/m 0,00 h 0,00 h 0 W/m 11,4 km/h (2 Bft) 96,51 %
23.11.2015 22:00 2,4 C 2,7 C 1,1 C 90 % 0 lf 1024,1 hPa 0,0 l/m 0,00 h 0,00 h 0 W/m 13,6 km/h (3 Bft) 94,87 %
23.11.2015 23:00 2,2 C 2,3 C 1,1 C 89 % 0 lf 1023,8 hPa 0,0 l/m 0,00 h 0,00 h 0 W/m 13,0 km/h (3 Bft) 95,48 %
24.11.2015 00:00 2,2 C 2,2 C 1,1 C 88 % 0 lf 1023,4 hPa 0,0 l/m 0,00 h 0,00 h 0 W/m 12,4 km/h (3 Bft) 96,37 %
24.11.2015 01:00 2,1 C 2,2 C 0,9 C 88 % 0 lf 1022,8 hPa 0,0 l/m 0,00 h 0,00 h 0 W/m 12,2 km/h (2 Bft) 95,84 %
24.11.2015 02:00 1,8 C 2,0 C 0,6 C 87 % 0 lf 1022,5 hPa 0,0 l/m 0,00 h 0,00 h 0 W/m 13,7 km/h (3 Bft) 96,70 %
24.11.2015 03:00 1,7 C 1,9 C 0,6 C 86 % 0 lf 1021,8 hPa 0,0 l/m 0,00 h 0,00 h 0 W/m 14,3 km/h (3 Bft) 95,65 %
24.11.2015 04:00 1,8 C 2,2 C 0,8 C 83 % 0 lf 1021,1 hPa 0,0 l/m 0,00 h 0,00 h 0 W/m 15,7 km/h (3 Bft) 95,95 %
24.11.2015 05:00 2,1 C 2,5 C 1,1 C 82 % 0 lf 1020,6 hPa 0,0 l/m 0,00 h 0,00 h 0 W/m 15,3 km/h (3 Bft) 96,03 %
24.11.2015 06:00 2,3 C 2,8 C 1,1 C 82 % 0 lf 1020,2 hPa 0,0 l/m 0,00 h 0,00 h 0 W/m 16,1 km/h (3 Bft) 97,80 %
24.11.2015 07:00 2,4 C 2,8 C 1,4 C 81 % 0 lf 1019,7 hPa 0,0 l/m 0,00 h 0,00 h 0 W/m 13,7 km/h (3 Bft) 94,88 %
24.11.2015 08:00 2,8 C 3,3 C 1,9 C 78 % 0 lf 1019,4 hPa 0,0 l/m 0,00 h 0,00 h 11 W/m 19,0 km/h (3 Bft) 95,33 %
24.11.2015 09:00 3,3 C 3,9 C 2,5 C 76 % 0 lf 1018,7 hPa 0,0 l/m 0,00 h 0,00 h 54 W/m 22,1 km/h (4 Bft) 97,95 %
24.11.2015 10:00 3,7 C 4,4 C 2,8 C 74 % 0 lf 1018,0 hPa 0,0 l/m 0,00 h 0,00 h 55 W/m 25,7 km/h (4 Bft) 94,70 %
24.11.2015 11:00 3,9 C 4,5 C 3,2 C 74 % 0 lf 1017,5 hPa 0,0 l/m 0,00 h 0,03 h 83 W/m 25,5 km/h (4 Bft) 96,34 %
24.11.2015 12:00 3,9 C 4,5 C 3,2 C 77 % 0 lf 1016,2 hPa 0,0 l/m 0,00 h 0,33 h 94 W/m 32,6 km/h (5 Bft) 95,91 %
24.11.2015 13:00 4,0 C 4,0 C 2,7 C 79 % 6 lf 1014,9 hPa 0,0 l/m 0,00 h 0,67 h 62 W/m 33,3 km/h (5 Bft) 93,83 %
24.11.2015 14:00 3,2 C 2,6 C 1,4 C 86 % 14 lf 1014,0 hPa 0,4 l/m 0,00 h 1,00 h 32 W/m 30,2 km/h (5 Bft) 97,07 %
24.11.2015 15:00 2,3 C 1,8 C 0,9 C 91 % 15 lf 1012,5 hPa 0,6 l/m 0,00 h 1,00 h 17 W/m 27,3 km/h (4 Bft) 97,94 %
24.11.2015 16:00 1,5 C 1,1 C 0,0 C 93 % 15 lf 1011,5 hPa 1,0 l/m 0,00 h 1,00 h 6 W/m 20,4 km/h (4 Bft) 92,64 %
24.11.2015 17:00 1,0 C 0,8 C -0,5 C 94 % 15 lf 1011,1 hPa 1,8 l/m 0,00 h 1,00 h 0 W/m 16,2 km/h (3 Bft) 97,64 %
24.11.2015 18:00 1,2 C 1,5 C 0,3 C 96 % 15 lf 1010,5 hPa 1,4 l/m 0,00 h 0,97 h 0 W/m 13,5 km/h (3 Bft) 96,30 %
24.11.2015 19:00 2,4 C 2,8 C 1,5 C 97 % 15 lf 1009,8 hPa 0,8 l/m 0,00 h 0,97 h 0 W/m 16,0 km/h (3 Bft) 95,96 %
24.11.2015 20:00 2,7 C 2,8 C 1,7 C 97 % 15 lf 1009,1 hPa 0,2 l/m 0,00 h 0,93 h 0 W/m 15,5 km/h (3 Bft) 96,15 %
24.11.2015 21:00 2,9 C 2,8 C 1,7 C 97 % 15 lf 1008,5 hPa 0,4 l/m 0,00 h 0,93 h 0 W/m 18,0 km/h (3 Bft) 95,45 %
24.11.2015 22:00 3,1 C 3,3 C 2,2 C 97 % 15 lf 1007,9 hPa 0,0 l/m 0,00 h 0,67 h 0 W/m 19,2 km/h (3 Bft) 95,65 %
24.11.2015 23:00 3,2 C 3,3 C 2,2 C 97 % 15 lf 1007,3 hPa 0,2 l/m 0,00 h 0,90 h 0 W/m 18,6 km/h (3 Bft) 97,06 %
25.11.2015 00:00 3,3 C 3,3 C 2,2 C 97 % 15 lf 1006,8 hPa 0,4 l/m 0,00 h 0,77 h 0 W/m 16,0 km/h (3 Bft) 95,67 %
25.11.2015 01:00 3,6 C 3,7 C 2,5 C 97 % 15 lf 1006,2 hPa 0,0 l/m 0,00 h 0,43 h 0 W/m 14,3 km/h (3 Bft) 94,21 %
25.11.2015 02:00 3,9 C 3,9 C 2,8 C 97 % 15 lf 1005,8 hPa 0,8 l/m 0,00 h 1,00 h 0 W/m 12,2 km/h (2 Bft) 96,92 %
25.11.2015 03:00 4,3 C 4,4 C 3,3 C 97 % 15 lf 1005,3 hPa 0,6 l/m 0,00 h 0,80 h 0 W/m 16,1 km/h (3 Bft) 96,66 %
25.11.2015 04:00 4,7 C 4,8 C 3,5 C 98 % 15 lf 1005,0 hPa 0,0 l/m 0,00 h 0,57 h 0 W/m 16,1 km/h (3 Bft) 96,16 %
25.11.2015 05:00 5,1 C 5,2 C 3,9 C 98 % 15 lf 1004,8 hPa 0,0 l/m 0,00 h 0,30 h 0 W/m 17,0 km/h (3 Bft) 93,29 %
25.11.2015 06:00 5,4 C 5,6 C 4,2 C 98 % 15 lf 1004,7 hPa 0,0 l/m 0,00 h 0,10 h 0 W/m 15,3 km/h (3 Bft) 98,15 %
25.11.2015 07:00 5,7 C 5,6 C 4,4 C 98 % 15 lf 1004,8 hPa 0,0 l/m 0,00 h 0,17 h 0 W/m 16,4 km/h (3 Bft) 95,15 %
25.11.2015 08:00 5,7 C 5,7 C 4,4 C 98 % 15 lf 1005,2 hPa 0,0 l/m 0,00 h 0,17 h 12 W/m 20,5 km/h (4 Bft) 96,53 %
25.11.2015 09:00 5,6 C 5,8 C 4,4 C 98 % 15 lf 1005,2 hPa 0,2 l/m 0,00 h 0,40 h 46 W/m 16,0 km/h (3 Bft) 95,73 %
25.11.2015 10:00 5,7 C 7,4 C 4,7 C 98 % 15 lf 1005,0 hPa 0,2 l/m 0,60 h 0,13 h 152 W/m 19,6 km/h (3 Bft) 95,08 %
25.11.2015 11:00 6,4 C 7,4 C 5,1 C 97 % 8 lf 1005,1 hPa 0,0 l/m 0,17 h 0,17 h 96 W/m 19,9 km/h (4 Bft) 96,30 %
25.11.2015 12:00 6,4 C 6,8 C 5,1 C 95 % 15 lf 1004,9 hPa 0,0 l/m 0,00 h 0,50 h 84 W/m 14,8 km/h (3 Bft) 97,31 %
25.11.2015 13:00 6,6 C 8,3 C 5,2 C 95 % 8 lf 1004,7 hPa 0,0 l/m 0,13 h 0,07 h 114 W/m 17,2 km/h (3 Bft) 93,24 %
25.11.2015 14:00 6,5 C 7,7 C 5,0 C 93 % 0 lf 1004,6 hPa 0,0 l/m 0,37 h 0,13 h 109 W/m 16,1 km/h (3 Bft) 97,08 %
25.11.2015 15:00 6,6 C 7,0 C 4,6 C 91 % 1 lf 1004,8 hPa 0,0 l/m 0,03 h 0,17 h 47 W/m 12,6 km/h (3 Bft) 98,43 %
25.11.2015 16:00 6,1 C 5,8 C 4,2 C 91 % 0 lf 1005,3 hPa 0,0 l/m 0,00 h 0,00 h 10 W/m 10,6 km/h (2 Bft) 93,59 %
25.11.2015 17:00 5,3 C 4,2 C 2,9 C 93 % 3 lf 1005,7 hPa 0,0 l/m 0,00 h 0,00 h 0 W/m 7,6 km/h (2 Bft) 95,93 %
25.11.2015 18:00 4,7 C 4,4 C 3,1 C 94 % 9 lf 1006,4 hPa 0,0 l/m 0,00 h 0,00 h 0 W/m 11,1 km/h (2 Bft) 96,23 %
25.11.2015 19:00 4,6 C 4,1 C 2,9 C 95 % 4 lf 1007,0 hPa 0,0 l/m 0,00 h 0,00 h 0 W/m 13,9 km/h (3 Bft) 94,66 %
25.11.2015 20:00 4,2 C 4,0 C 2,7 C 95 % 4 lf 1007,6 hPa 0,0 l/m 0,00 h 0,10 h 0 W/m 10,8 km/h (2 Bft) 97,22 %
25.11.2015 21:00 4,1 C 4,2 C 2,8 C 96 % 5 lf 1008,2 hPa 0,0 l/m 0,00 h 0,00 h 0 W/m 11,1 km/h (2 Bft) 95,87 %
25.11.2015 22:00 4,3 C 4,4 C 3,2 C 96 % 1 lf 1008,6 hPa 0,0 l/m 0,00 h 0,00 h 0 W/m 11,6 km/h (2 Bft) 94,02 %
25.11.2015 23:00 4,3 C 4,4 C 3,0 C 96 % 1 lf 1009,0 hPa 0,0 l/m 0,00 h 0,00 h 0 W/m 12,4 km/h (3 Bft) 97,94 %
26.11.2015 00:00 4,2 C 4,2 C 2,7 C 96 % 1 lf 1009,4 hPa 0,0 l/m 0,00 h 0,00 h 0 W/m 12,2 km/h (2 Bft) 96,39 %
26.11.2015 01:00 3,9 C 3,6 C 2,4 C 96 % 2 lf 1010,0 hPa 0,0 l/m 0,00 h 0,00 h 0 W/m 11,9 km/h (2 Bft) 95,38 %
26.11.2015 02:00 3,4 C 2,5 C 1,3 C 96 % 4 lf 1010,5 hPa 0,0 l/m 0,00 h 0,00 h 0 W/m 7,6 km/h (2 Bft) 95,87 %
26.11.2015 03:00 2,6 C 1,8 C 0,6 C 95 % 13 lf 1011,1 hPa 0,2 l/m 0,00 h 0,00 h 0 W/m 8,3 km/h (2 Bft) 96,29 %
26.11.2015 04:00 2,1 C 1,3 C 0,2 C 95 % 15 lf 1011,7 hPa 0,0 l/m 0,00 h 0,00 h 0 W/m 7,8 km/h (2 Bft) 96,45 %
26.11.2015 05:00 1,8 C 0,6 C -0,4 C 96 % 15 lf 1012,4 hPa 0,0 l/m 0,00 h 0,00 h 0 W/m 4,3 km/h (1 Bft) 95,54 %
26.11.2015 06:00 1,3 C 0,6 C -0,4 C 96 % 15 lf 1013,1 hPa 0,0 l/m 0,00 h 0,00 h 0 W/m 5,7 km/h (1 Bft) 96,68 %
26.11.2015 07:00 1,0 C -0,3 C -1,0 C 96 % 15 lf 1014,0 hPa 0,0 l/m 0,00 h 0,00 h 5 W/m 4,7 km/h (1 Bft) 95,33 %
26.11.2015 08:00 0,6 C -0,1 C -1,1 C 96 % 15 lf 1014,9 hPa 0,0 l/m 0,57 h 0,00 h 25 W/m 4,1 km/h (1 Bft) 96,24 %
26.11.2015 09:00 0,7 C 1,4 C -0,1 C 96 % 15 lf 1015,7 hPa 0,0 l/m 0,60 h 0,00 h 84 W/m 1,8 km/h (1 Bft) 97,35 %
26.11.2015 10:00 2,5 C 7,9 C 2,1 C 97 % 15 lf 1016,3 hPa 0,0 l/m 1,00 h 0,00 h 190 W/m 8,3 km/h (2 Bft) 95,88 %
26.11.2015 11:00 5,2 C 17,8 C 4,4 C 98 % 15 lf 1017,1 hPa 0,0 l/m 1,00 h 0,00 h 259 W/m 8,5 km/h (2 Bft) 94,90 %
26.11.2015 12:00 7,0 C 16,8 C 5,7 C 94 % 0 lf 1017,4 hPa 0,0 l/m 0,93 h 0,00 h 264 W/m 9,6 km/h (2 Bft) 93,60 %
26.11.2015 13:00 8,1 C 18,3 C 6,1 C 84 % 0 lf 1017,6 hPa 0,0 l/m 1,00 h 0,00 h 228 W/m 8,6 km/h (2 Bft) 96,72 %
26.11.2015 14:00 8,6 C 14,2 C 5,9 C 80 % 0 lf 1018,1 hPa 0,0 l/m 1,00 h 0,00 h 142 W/m 9,8 km/h (2 Bft) 97,43 %
26.11.2015 15:00 8,0 C 8,1 C 4,6 C 81 % 0 lf 1018,5 hPa 0,0 l/m 0,13 h 0,00 h 50 W/m 8,0 km/h (2 Bft) 95,87 %
26.11.2015 16:00 6,6 C 4,7 C 2,4 C 82 % 0 lf 1019,1 hPa 0,0 l/m 0,07 h 0,00 h 12 W/m 1,7 km/h (1 Bft) 97,44 %
26.11.2015 17:00 4,5 C 2,5 C 0,8 C 85 % 2 lf 1019,6 hPa 0,0 l/m 0,00 h 0,00 h 0 W/m 0,0 km/h (0 Bft) 96,37 %
26.11.2015 18:00 3,0 C 1,9 C 0,0 C 88 % 11 lf 1020,2 hPa 0,0 l/m 0,00 h 0,00 h 0 W/m 0,1 km/h (0 Bft) 93,80 %
26.11.2015 19:00 2,2 C 1,2 C -0,4 C 91 % 15 lf 1020,6 hPa 0,0 l/m 0,00 h 0,00 h 0 W/m 2,7 km/h (1 Bft) 94,98 %
26.11.2015 20:00 1,4 C 0,4 C -1,0 C 92 % 15 lf 1021,0 hPa 0,0 l/m 0,00 h 0,00 h 0 W/m 1,1 km/h (1 Bft) 97,51 %
26.11.2015 21:00 0,6 C -0,5 C -1,5 C 93 % 15 lf 1021,4 hPa 0,0 l/m 0,00 h 0,00 h 0 W/m 3,6 km/h (1 Bft) 96,58 %
26.11.2015 22:00 0,4 C 0,5 C -1,2 C 94 % 15 lf 1021,2 hPa 0,0 l/m 0,00 h 0,00 h 0 W/m 5,5 km/h (1 Bft) 95,61 %
26.11.2015 23:00 0,7 C 0,5 C -1,4 C 95 % 15 lf 1021,3 hPa 0,0 l/m 0,00 h 0,00 h 0 W/m 5,0 km/h (1 Bft) 95,68 %
27.11.2015 00:00 0,5 C 0,2 C -1,6 C 95 % 15 lf 1021,1 hPa 0,0 l/m 0,00 h 0,00 h 0 W/m 5,0 km/h (1 Bft) 95,51 %
27.11.2015 01:00 0,4 C 0,0 C -1,7 C 96 % 15 lf 1021,0 hPa 0,0 l/m 0,00 h 0,00 h 0 W/m 4,8 km/h (1 Bft) 96,64 %
27.11.2015 02:00 0,2 C 0,0 C -1,5 C 96 % 15 lf 1020,9 hPa 0,0 l/m 0,00 h 0,03 h 0 W/m 6,2 km/h (2 Bft) 97,72 %
27.11.2015 03:00 -0,0 C -0,0 C -1,6 C 96 % 15 lf 1020,4 hPa 0,0 l/m 0,00 h 0,00 h 0 W/m 6,4 km/h (2 Bft) 92,49 %
27.11.2015 04:00 -0,2 C -0,4 C -1,7 C 97 % 15 lf 1020,0 hPa 0,0 l/m 0,00 h 0,00 h 0 W/m 6,1 km/h (2 Bft) 98,44 %
27.11.2015 05:00 -0,4 C -0,6 C -1,7 C 97 % 15 lf 1019,6 hPa 0,0 l/m 0,00 h 0,00 h 0 W/m 9,4 km/h (2 Bft) 96,49 %
27.11.2015 06:00 -0,6 C -0,8 C -1,9 C 97 % 12 lf 1019,0 hPa 0,0 l/m 0,00 h 0,07 h 0 W/m 10,7 km/h (2 Bft) 96,47 %
27.11.2015 07:00 -1,0 C -1,1 C -1,9 C 97 % 12 lf 1018,8 hPa 0,0 l/m 0,00 h 0,17 h 0 W/m 13,5 km/h (3 Bft) 94,52 %
27.11.2015 08:00 -0,8 C -0,6 C -1,7 C 97 % 15 lf 1018,7 hPa 0,0 l/m 0,00 h 0,03 h 15 W/m 14,4 km/h (3 Bft) 96,05 %
27.11.2015 09:00 -0,4 C 0,0 C -1,0 C 97 % 15 lf 1018,3 hPa 0,0 l/m 0,00 h 0,03 h 49 W/m 14,1 km/h (3 Bft) 95,86 %
27.11.2015 10:00 0,2 C 1,3 C -0,1 C 98 % 15 lf 1018,0 hPa 0,2 l/m 0,30 h 0,03 h 115 W/m 14,4 km/h (3 Bft) 97,16 %
27.11.2015 11:00 2,3 C 7,0 C 1,4 C 98 % 15 lf 1017,4 hPa 0,0 l/m 1,00 h 0,07 h 229 W/m 12,8 km/h (3 Bft) 94,02 %
27.11.2015 12:00 4,4 C 8,8 C 3,6 C 99 % 12 lf 1016,4 hPa 0,0 l/m 0,97 h 0,00 h 253 W/m 16,9 km/h (3 Bft) 96,54 %
27.11.2015 13:00 6,7 C 11,6 C 5,3 C 89 % 0 lf 1015,3 hPa 0,0 l/m 1,00 h 0,00 h 220 W/m 17,8 km/h (3 Bft) 97,65 %
27.11.2015 14:00 7,8 C 10,7 C 5,6 C 78 % 0 lf 1014,3 hPa 0,0 l/m 1,00 h 0,00 h 136 W/m 17,8 km/h (3 Bft) 97,00 %
27.11.2015 15:00 7,5 C 7,6 C 5,2 C 77 % 0 lf 1013,5 hPa 0,0 l/m 0,10 h 0,00 h 46 W/m 14,0 km/h (3 Bft) 95,38 %
27.11.2015 16:00 7,0 C 7,2 C 5,0 C 79 % 0 lf 1012,9 hPa 0,0 l/m 0,00 h 0,00 h 10 W/m 14,9 km/h (3 Bft) 96,00 %
27.11.2015 17:00 6,6 C 6,7 C 5,0 C 79 % 0 lf 1012,3 hPa 0,0 l/m 0,00 h 0,00 h 0 W/m 15,7 km/h (3 Bft) 95,21 %
27.11.2015 18:00 6,2 C 6,2 C 4,6 C 80 % 0 lf 1012,0 hPa 0,0 l/m 0,00 h 0,00 h 0 W/m 18,0 km/h (3 Bft) 98,17 %
27.11.2015 19:00 5,3 C 5,2 C 3,7 C 82 % 0 lf 1011,7 hPa 0,0 l/m 0,00 h 0,00 h 0 W/m 14,5 km/h (3 Bft) 94,67 %
27.11.2015 20:00 4,4 C 4,4 C 3,0 C 84 % 0 lf 1011,0 hPa 0,0 l/m 0,00 h 0,00 h 0 W/m 17,3 km/h (3 Bft) 94,33 %
27.11.2015 21:00 3,5 C 3,7 C 2,2 C 85 % 0 lf 1010,1 hPa 0,0 l/m 0,00 h 0,00 h 0 W/m 19,4 km/h (3 Bft) 97,53 %
27.11.2015 22:00 2,8 C 2,9 C 1,7 C 87 % 0 lf 1009,2 hPa 0,0 l/m 0,00 h 0,00 h 0 W/m 14,1 km/h (3 Bft) 96,14 %
27.11.2015 23:00 3,0 C 3,5 C 2,1 C 88 % 0 lf 1008,7 hPa 0,0 l/m 0,00 h 0,00 h 0 W/m 16,0 km/h (3 Bft) 95,66 %
28.11.2015 00:00 3,4 C 3,4 C 2,1 C 87 % 0 lf 1007,7 hPa 0,0 l/m 0,00 h 0,07 h 0 W/m 17,5 km/h (3 Bft) 93,65 %
28.11.2015 01:00 3,2 C 3,3 C 2,0 C 91 % 0 lf 1006,7 hPa 0,0 l/m 0,00 h 0,00 h 0 W/m 18,6 km/h (3 Bft) 97,86 %
28.11.2015 02:00 3,5 C 3,4 C 2,2 C 91 % 2 lf 1006,0 hPa 0,0 l/m 0,00 h 0,33 h 0 W/m 17,1 km/h (3 Bft) 95,58 %
28.11.2015 03:00 3,8 C 3,8 C 2,6 C 94 % 11 lf 1005,6 hPa 0,4 l/m 0,00 h 0,40 h 0 W/m 17,0 km/h (3 Bft) 96,58 %
28.11.2015 04:00 4,9 C 4,7 C 3,3 C 96 % 15 lf 1005,3 hPa 0,4 l/m 0,00 h 0,83 h 0 W/m 29,4 km/h (5 Bft) 95,36 %
28.11.2015 05:00 5,2 C 5,1 C 3,9 C 96 % 15 lf 1005,9 hPa 0,2 l/m 0,00 h 0,90 h 0 W/m 28,0 km/h (4 Bft) 95,81 %
28.11.2015 06:00 5,6 C 5,6 C 4,3 C 97 % 15 lf 1007,5 hPa 0,0 l/m 0,00 h 0,70 h 0 W/m 27,7 km/h (4 Bft) 96,23 %
28.11.2015 07:00 5,6 C 5,6 C 3,9 C 97 % 15 lf 1009,1 hPa 0,2 l/m 0,00 h 0,57 h 0 W/m 21,1 km/h (4 Bft) 97,65 %
28.11.2015 08:00 5,4 C 5,1 C 3,9 C 96 % 15 lf 1010,5 hPa 0,0 l/m 0,00 h 0,10 h 12 W/m 18,9 km/h (3 Bft) 93,73 %
28.11.2015 09:00 5,1 C 5,1 C 3,4 C 96 % 15 lf 1011,6 hPa 0,0 l/m 0,73 h 0,00 h 81 W/m 22,2 km/h (4 Bft) 96,37 %
28.11.2015 10:00 5,4 C 7,9 C 3,9 C 93 % 8 lf 1012,5 hPa 0,0 l/m 1,00 h 0,00 h 176 W/m 23,7 km/h (4 Bft) 97,58 %
28.11.2015 11:00 6,7 C 13,9 C 4,5 C 85 % 0 lf 1012,9 hPa 0,0 l/m 1,00 h 0,00 h 249 W/m 24,7 km/h (4 Bft) 95,09 %
28.11.2015 12:00 7,5 C 12,9 C 5,2 C 81 % 0 lf 1013,4 hPa 0,0 l/m 0,93 h 0,00 h 275 W/m 25,9 km/h (4 Bft) 94,25 %
28.11.2015 13:00 7,5 C 11,2 C 5,4 C 78 % 0 lf 1013,9 hPa 0,0 l/m 0,67 h 0,00 h 182 W/m 27,2 km/h (4 Bft) 96,94 %
28.11.2015 14:00 7,1 C 8,2 C 5,4 C 78 % 0 lf 1014,2 hPa 0,0 l/m 0,57 h 0,00 h 110 W/m 28,3 km/h (4 Bft) 95,30 %
28.11.2015 15:00 6,6 C 6,8 C 4,9 C 78 % 0 lf 1014,4 hPa 0,0 l/m 0,00 h 0,00 h 43 W/m 25,4 km/h (4 Bft) 97,23 %
28.11.2015 16:00 5,9 C 5,8 C 4,1 C 80 % 0 lf 1014,6 hPa 0,0 l/m 0,00 h 0,00 h 12 W/m 21,3 km/h (4 Bft) 95,51 %
28.11.2015 17:00 5,4 C 5,6 C 3,9 C 80 % 0 lf 1014,3 hPa 0,0 l/m 0,00 h 0,00 h 0 W/m 18,2 km/h (3 Bft) 97,22 %
28.11.2015 18:00 5,7 C 6,0 C 4,4 C 78 % 0 lf 1013,4 hPa 0,0 l/m 0,00 h 0,13 h 0 W/m 23,4 km/h (4 Bft) 94,24 %
28.11.2015 19:00 6,1 C 6,4 C 4,6 C 80 % 0 lf 1012,8 hPa 0,0 l/m 0,00 h 0,00 h 0 W/m 29,6 km/h (5 Bft) 96,23 %
28.11.2015 20:00 6,4 C 6,5 C 4,7 C 82 % 0 lf 1012,2 hPa 0,0 l/m 0,00 h 0,27 h 0 W/m 32,9 km/h (5 Bft) 96,94 %
28.11.2015 21:00 6,6 C 6,9 C 5,2 C 82 % 0 lf 1011,4 hPa 0,0 l/m 0,00 h 0,00 h 0 W/m 35,8 km/h (5 Bft) 96,51 %
28.11.2015 22:00 6,8 C 7,2 C 5,5 C 81 % 0 lf 1010,1 hPa 0,0 l/m 0,00 h 0,00 h 0 W/m 35,8 km/h (5 Bft) 93,02 %
28.11.2015 23:00 7,0 C 6,3 C 4,9 C 83 % 10 lf 1009,4 hPa 0,8 l/m 0,00 h 0,73 h 0 W/m 39,7 km/h (6 Bft) 98,00 %
29.11.2015 00:00 6,4 C 5,6 C 4,4 C 91 % 15 lf 1009,1 hPa 1,2 l/m 0,00 h 0,97 h 0 W/m 39,8 km/h (6 Bft) 92,09 %
29.11.2015 01:00 6,3 C 5,7 C 4,4 C 93 % 15 lf 1008,6 hPa 0,6 l/m 0,00 h 1,00 h 0 W/m 38,9 km/h (6 Bft) 97,14 %
29.11.2015 02:00 6,4 C 6,1 C 4,7 C 94 % 15 lf 1008,3 hPa 0,6 l/m 0,00 h 1,00 h 0 W/m 36,8 km/h (5 Bft) 93,88 %
29.11.2015 03:00 6,8 C 6,5 C 5,0 C 95 % 15 lf 1008,3 hPa 0,2 l/m 0,00 h 1,00 h 0 W/m 39,3 km/h (6 Bft) 96,65 %
29.11.2015 04:00 7,3 C 6,8 C 5,6 C 95 % 15 lf 1007,8 hPa 0,0 l/m 0,00 h 0,87 h 0 W/m 37,4 km/h (5 Bft) 96,36 %
29.11.2015 05:00 7,9 C 7,6 C 6,0 C 94 % 13 lf 1008,3 hPa 0,0 l/m 0,00 h 0,70 h 0 W/m 37,9 km/h (5 Bft) 96,37 %
29.11.2015 06:00 8,1 C 7,8 C 6,1 C 93 % 2 lf 1008,5 hPa 0,0 l/m 0,00 h 0,20 h 0 W/m 33,4 km/h (5 Bft) 96,08 %
29.11.2015 07:00 8,3 C 7,8 C 6,4 C 93 % 4 lf 1008,5 hPa 0,0 l/m 0,00 h 0,30 h 0 W/m 31,2 km/h (5 Bft) 94,74 %
29.11.2015 08:00 8,4 C 8,0 C 6,6 C 94 % 15 lf 1008,6 hPa 0,2 l/m 0,00 h 0,70 h 9 W/m 33,2 km/h (5 Bft) 96,66 %
29.11.2015 09:00 8,8 C 8,5 C 7,0 C 94 % 15 lf 1008,9 hPa 0,2 l/m 0,00 h 0,63 h 28 W/m 34,7 km/h (5 Bft) 97,51 %
29.11.2015 10:00 9,5 C 9,8 C 7,7 C 93 % 4 lf 1009,0 hPa 0,0 l/m 0,07 h 0,00 h 91 W/m 37,7 km/h (5 Bft) 94,45 %
29.11.2015 11:00 10,3 C 11,2 C 8,6 C 90 % 4 lf 1009,4 hPa 0,0 l/m 0,27 h 0,30 h 103 W/m 35,9 km/h (5 Bft) 94,94 %
29.11.2015 12:00 10,3 C 10,4 C 8,3 C 90 % 13 lf 1009,1 hPa 0,2 l/m 0,00 h 0,97 h 58 W/m 31,1 km/h (5 Bft) 98,16 %
29.11.2015 13:00 10,0 C 9,4 C 7,9 C 93 % 15 lf 1008,3 hPa 1,8 l/m 0,00 h 0,80 h 23 W/m 34,7 km/h (5 Bft) 95,09 %
29.11.2015 14:00 10,1 C 9,8 C 8,3 C 94 % 15 lf 1007,7 hPa 0,0 l/m 0,00 h 0,87 h 33 W/m 43,6 km/h (6 Bft) 95,36 %
29.11.2015 15:00 10,6 C 10,0 C 8,3 C 92 % 8 lf 1007,6 hPa 0,0 l/m 0,00 h 0,57 h 22 W/m 46,3 km/h (6 Bft) 96,30 %
29.11.2015 16:00 10,9 C 9,9 C 8,6 C 89 % 10 lf 1007,8 hPa 0,4 l/m 0,00 h 0,77 h 4 W/m 48,0 km/h (6 Bft) 94,73 %
29.11.2015 17:00 10,5 C 10,4 C 8,4 C 91 % 13 lf 1008,2 hPa 0,0 l/m 0,00 h 0,40 h 0 W/m 49,6 km/h (6 Bft) 97,23 %
29.11.2015 18:00 11,0 C 11,0 C 9,1 C 88 % 4 lf 1008,1 hPa 0,0 l/m 0,00 h 0,27 h 0 W/m 50,5 km/h (7 Bft) 96,51 %
29.11.2015 19:00 10,5 C 10,0 C 8,4 C 92 % 15 lf 1008,0 hPa 0,8 l/m 0,00 h 1,00 h 0 W/m 50,7 km/h (7 Bft) 93,10 %
29.11.2015 20:00 10,3 C 9,9 C 8,3 C 94 % 15 lf 1007,8 hPa 0,6 l/m 0,00 h 0,90 h 0 W/m 52,9 km/h (7 Bft) 97,08 %
29.11.2015 21:00 10,6 C 10,0 C 8,8 C 93 % 15 lf 1007,9 hPa 0,0 l/m 0,00 h 0,47 h 0 W/m 60,1 km/h (7 Bft) 97,65 %
29.11.2015 22:00 10,8 C 10,4 C 8,9 C 92 % 15 lf 1008,5 hPa 0,4 l/m 0,00 h 1,00 h 0 W/m 55,5 km/h (7 Bft) 92,10 %
29.11.2015 23:00 10,1 C 9,2 C 8,1 C 94 % 15 lf 1010,0 hPa 3,0 l/m 0,00 h 1,00 h 0 W/m 46,0 km/h (6 Bft) 97,64 %
Min-Datum _ 23.11.15 23.11.15 23.11.15 24.11.15 23.11.15 25.11.15 - - - - 23.11.15 29.11.15
_ Min-Zeit 08:30 06:56 06:56 10:32 11:56 13:54 - - - - 07:40 00:02
Minimum _ -1,3 C -2,2 C -2,8 C 73 % 0 lf 1004,5 hPa - - - - 0,0 km/h (0 Bft) 8,33 %
Max-Datum _ 29.11.15 26.11.15 29.11.15 27.11.15 23.11.15 23.11.15 29.11.15 23.11.15 23.11.15 26.11.15 29.11.15 23.11.15
_ Max-Zeit 18:42 11:42 11:34 11:54 00:00 18:40 23:14 08:52 10:12 12:06 23:18 00:06
Maximum _ 11,2 C 19,4 C 9,4 C 99 % 15 lf 1024,4 hPa 3,0 l/m 0,03 h 0,03 h 338 W/m 79,5 km/h
W (9 Bft)
100,00 %
Durchschnitt _ 4,4 C 5,0 C 2,8 C 91 % 8 lf 1013,5 hPa #22,0 l/m #23:40 h #38:42 h 88 W/m 18,6 km/h (3 Bft) 95,96 %
© 2015 W. Hausmann